Flag for U.S.A. Weather past 2 weeks in Stamford, Connecticut, U.S.A.

Now
65 °F

Sunny.


Feels Like: 65 °F
Forecast: 46 / 63 °F
Wind: 5 mph from South

Location: Westchester County Airport

Current Time: Oct 25, 2014 at 5:25:05 PM

Latest Report: Oct 25, 2014 at 4:56 PM


Visibility: 10 mi

Pressure: 29.64 "Hg

Humidity: 42%

Dew point: 41 °F

Location of StamfordLocation

Historic Weather in Stamford — Graph

°F

Stamford temperature yesterday

Maximum temperature yesterday: 57 °F (at 3:56 PM)
Minimum temperature yesterday: 45 °F (at 11:56 PM)
Average temperature yesterday: 51 °F

Past Weeks' High & Low Weather Summary

 TemperatureHumidityPressure
High75 °F (Oct 15, 2:56 PM)100% (Oct 14, 6:56 AM)30.34 "Hg (Oct 14, 6:56 AM)
Low36 °F (Oct 20, 3:56 AM)39% (Oct 19, 3:56 PM)26.00 "Hg (Oct 17, 4:20 AM)
Average56 °F77%29.91 "Hg
* Reported Oct 10 3:56 PM — Oct 25 3:56 PM, Stamford, Weather by CustomWeather, © 2014

Note: Actual official high and low records may vary slightly from our data, if they occured in-between our weather recording intervals... More about our weather records

Advertising

Stamford weather history for previous 24 hours

 ConditionsComfort  
Time TempWeatherWind HumidityBarometerVisibility
3:56 PM
Oct 25
65 °FSunny.8 mph42%29.66 "Hg10 mi
2:56 PM65 °FPassing clouds.10 mph42%29.69 "Hg10 mi
1:56 PM64 °FPassing clouds.13 mph45%29.71 "Hg10 mi
12:56 PM63 °FSunny.9 mph47%29.75 "Hg10 mi
11:56 AM60 °FPassing clouds.13 mph52%29.80 "Hg10 mi
10:56 AM57 °FSunny.8 mph55%29.82 "Hg10 mi
9:56 AM54 °FSunny.5 mph62%29.83 "Hg10 mi
8:56 AM50 °FSunny.12 mph66%29.84 "Hg10 mi
7:56 AM46 °FClear.7 mph73%29.85 "Hg10 mi
6:56 AM45 °FClear.6 mph76%29.85 "Hg10 mi
5:56 AM46 °FClear.7 mph73%29.85 "Hg10 mi
4:56 AM46 °FClear.6 mph77%29.84 "Hg10 mi
3:56 AM45 °FClear.No wind86%29.84 "Hg10 mi
2:56 AM45 °FClear.3 mph86%29.85 "Hg10 mi
1:56 AM47 °FClear.5 mph86%29.84 "Hg10 mi
12:56 AM45 °FClear.9 mph93%29.83 "Hg10 mi
11:56 PM
Oct 24
45 °FClear.No wind90%29.84 "Hg10 mi
10:56 PM47 °FClear.No wind93%29.83 "Hg10 mi
9:56 PM48 °FClear.No wind89%29.83 "Hg10 mi
8:56 PM49 °FClear.No wind84%29.81 "Hg10 mi
7:56 PM49 °FClear.3 mph86%29.80 "Hg10 mi
6:56 PM52 °FSunny.5 mph75%29.78 "Hg10 mi
5:56 PM56 °FPartly sunny.5 mph65%29.77 "Hg10 mi
Weather by CustomWeather, © 2014

See weather overviewHow to use our weather pages